This demonstration page uses our WeatherBlox Daily Observations layout. Learn more.

39.01783, -85.05884

Hourly Observations for November 4, 2019

Temp ( °F °C ) Dew Point ( °F °C ) Humidity (%) Winds ( mph kmh ) Pressure ( in mb ) Visibility ( mi km ) Precip ( " mm )
12:52 am 00:52 Mostly Cloudy 41 5 29 -1.7 62 62 S 3 6 30.14 1021 10 16.0934 0 0
1:52 am 01:52 Partly Cloudy 39 3.9 28 -2.2 65 65 S 8 13 30.12 1020 10 16.0934 0 0
2:52 am 02:52 Partly Cloudy 40 4.4 28 -2.2 63 63 SSW 8 13 30.12 1020 10 16.0934 0 0
3:52 am 03:52 Partly Cloudy 39 3.9 27 -2.8 62 62 S 9 15 30.13 1020 10 16.0934 0 0
4:52 am 04:52 Partly Cloudy 38 3.3 27 -2.8 65 65 S 10 17 30.11 1020 10 16.0934 0 0
6:52 am 06:52 Partly Cloudy 37 2.8 27 -2.8 67 67 S 9 15 30.13 1020 10 16.0934 0 0
7:52 am 07:52 Mostly Cloudy 39 3.9 28 -2.2 65 65 S 8 13 30.13 1020 10 16.0934 0 0
8:52 am 08:52 Mostly Cloudy 46 7.8 29 -1.7 51 51 S 13 20 30.14 1021 10 16.0934 0 0
9:52 am 09:52 Mostly Cloudy 50 10 30 -1.1 46 46 SSW 12 19 30.13 1020 10 16.0934 0 0
10:52 am 10:52 Mostly Cloudy 54 12.2 33 0.6 45 45 SSW 14 22 30.12 1020 10 16.0934 0 0
11:52 am 11:52 Mostly Cloudy 56 13.3 33 0.6 42 42 SSW 15 24 30.11 1020 10 16.0934 0 0
12:52 pm 12:52 Mostly Cloudy 58 14.4 34 1.1 41 41 SSW 15 24 30.08 1019 10 16.0934 0 0
1:52 pm 13:52 Mostly Cloudy 60 15.6 32 0 35 35 SSW 17 28 30.06 1018 10 16.0934 0 0
2:52 pm 14:52 Mostly Cloudy 59 15 32 0 36 36 S 17 28 30.06 1018 10 16.0934 0 0
4:52 pm 16:52 Cloudy 57 13.9 32 0 39 39 SSW 7 11 30.07 1018 10 16.0934 0 0
5:52 pm 17:52 Mostly Cloudy 55 12.8 33 0.6 44 44 S 7 11 30.07 1018 10 16.0934 0 0
6:52 pm 18:52 Cloudy 54 12.2 32 0 43 43 SSW 8 13 30.08 1019 10 16.0934 0 0
7:52 pm 19:52 Mostly Cloudy 53 11.7 31 -0.6 43 43 SSW 6 9 30.09 1019 10 16.0934 0 0
8:52 pm 20:52 Mostly Cloudy 51 10.6 31 -0.6 46 46 SSW 6 9 30.1 1019 10 16.0934 0 0
9:52 pm 21:52 Cloudy 51 10.6 31 -0.6 46 46 SSW 7 11 30.11 1020 10 16.0934 0 0
10:52 pm 22:52 Cloudy 52 11.1 31 -0.6 45 45 SSW 7 11 30.11 1020 10 16.0934 0 0
11:52 pm 23:52 Cloudy 52 11.1 32 0 47 47 WSW 6 9 30.11 1020 10 16.0934 0 0

Powered by AerisWeather